Regional Weather Roundup
Issued by NWS Mt. Holly, NJ

Home | Current Version | Previous Version | Text Only | Print | Product List | Glossary On
Versions: 1 2 3 4 5 6 7 8 9 10 11 12 13 14 15 16 17 18 19 20 21 22 23 24 25 26 27 28 29 30 31 32 33 34 35 36 37 38 39 40 41 42 43 44 45 46 47 48 49 50
000
ASUS41 KPHI 300112
RWRPHI

REGIONAL WEATHER ROUNDUP
NATIONAL WEATHER SERVICE MOUNT HOLLY NJ
900 PM EDT WED JUL 29 2015

NOTE:  "FAIR" INDICATES FEW OR NO CLOUDS BELOW 12,000 FEET WITH NO
SIGNIFICANT WEATHER AND/OR OBSTRUCTIONS TO VISIBILITY.

 * = STATION DOES NOT REPORT PRECIPITATION (E.G. RAIN, SNOW, ETC.)
        OR FOG.

NJZ015>026-300200-
SOUTHERN NEW JERSEY

CITY           SKY/WX    TMP DP  RH WIND       PRES   REMARKS
POMONA         CLEAR     80  73  79 S5        29.96S
RIO GRANDE*    PTCLDY    79  70  73 S6        29.97S
MILLVILLE      PTCLDY    78  74  87 CALM      29.96S
WRIGHTSTOWN    CLEAR     79  72  79 SW5       29.93R
MOUNT HOLLY    CLEAR     80  72  76 CALM      29.94S
TRENTON        CLEAR     83  72  69 SW12      29.94R

$$
NJZ001>014-300200-
NORTHERN NEW JERSEY

CITY           SKY/WX    TMP DP  RH WIND       PRES   REMARKS
SUSSEX         CLEAR     77  69  76 CALM      29.94S
ANDOVER*         N/A     75  72  90 CALM      29.94S
NEWARK         MOCLDY    87  73  62 S10       29.91R HX  94
TETERBORO      CLEAR     86  71  60 S7        29.90R HX  91
CALDWELL       CLEAR     86  65  49 S3        29.91S
SOMERVILLE     CLEAR     83  70  64 S3        29.91R
ALLAIRE*       CLEAR     82  70  65 SW8       29.95R
TOMS RIVER*      N/A     79  72  78 SW5       29.96R

$$
PAZ043-044-047-054-055-060>062-066>071-300200-
EASTERN PENNSYLVANIA

CITY           SKY/WX    TMP DP  RH WIND       PRES   REMARKS
PHILADELPHIA   PTCLDY    83  72  69 S8        29.95S
NORTH PHILA    CLEAR     84  69  60 SW10      29.96R
BLUE BELL      CLEAR     82  73  74 SW8       29.95S
DOYLESTOWN     CLEAR     81  71  71 SW6       29.95R
QUAKERTOWN*    CLEAR     81  73  78 SW3       29.97R
POTTSTOWN      CLEAR     81  72  74 S3        29.97R
LANCASTER      PTCLDY    80  73  79 S7        29.95S
COATESVILLE    LGT RAIN  77  73  88 CALM      29.98S
READING        PTCLDY    82  71  69 S8        29.93F
ALLENTOWN      CLEAR     83  71  67 SW9       29.93S
MOUNT POCONO     N/A    N/A N/A N/A MISG      30.01F
HAZLETON       PTCLDY    77  68  73 S3        30.02S
WILKES BARRE   PTCLDY    82  63  52 SW5       29.94S

$$
DEZALL-MDZ008-012-015-019-020-300200-
DELAWARE AND EASTERN MARYLAND

CITY           SKY/WX    TMP DP  RH WIND       PRES   REMARKS
WILMINGTON     CLEAR     80  74  81 S6        29.96S
DOVER          CLEAR     78  78 100 S5        29.94S
GEORGETOWN     CLEAR     80  72  76 S9        29.97S
EASTON         CLEAR     86  73  66 S6        29.99S HX  93
PATUXENT       MOCLDY    80  73  79 S6        29.96R
OCEAN CITY     PTCLDY    79  73  82 S3        29.99R
WALLOPS ISLAND PTCLDY    79  74  84 S10       29.99R
CAMBRIDGE      PTCLDY    81  72  74 SE5       29.97R
SALISBURY      PTCLDY    77  71  82 S6        29.98R

$$
PAZ001-021-NYZ056-072-MDZ011-DCZ001-300200-
OTHER NEARBY LOCATIONS

CITY           SKY/WX    TMP DP  RH WIND       PRES   REMARKS
HARRISBURG     PTCLDY    83  74  74 S7        29.92S
STATE COLLEGE  CLEAR     79  70  73 CALM      29.96F
WILLIAMSPORT   PTCLDY    82  66  58 CALM      29.90F
BINGHAMTON     CLEAR     76  62  62 SW7       29.96F
NEW YORK CITY  CLEAR     86  71  60 VRB3      29.94S HX  91
BALTIMORE      MOCLDY    80  75  84 S3        29.94S
WASHINGTON DC  PTCLDY    86  71  60 S10       29.95R HX  91

$$


USA.gov is the U.S. government's official web portal to all federal, state and local government web resources and services.